Location: Wien
(48.2082°N, 16.3738°E)
Time: 09:13:46
(UTC+02:00)

Transit 4A - Pass Details

Date: 24 February 2024
Orbit: 871 x 971 km, 66.8° (Epoch: 24 April)

Event Time Altitude Azimuth Distance (km) Brightness Sun altitude
Exits shadow 03:08:57 27° 4° (N) 1,696 9.5 -36.0°
Drops below altitude 10° 03:11:58 10° 25° (NNE) 2,586 10.8 -35.6°
Sets 03:14:39 0° 34° (NE) 3,515 11.7 -35.2°
